Back to catalog

STARLINK-1807

AliveCommunicationsVLEO
NORAD 46706·PAYLOAD·🇺🇸 United States

Launched Oct 18, 2020 from Cape Canaveral Space Force Station

Loading…

Next Passes (next 24 hours)

TLE

FreshSource: CelesTrak SupGP

Epoch: Sep 14, 2026, 21:40 UTC

1 46706C 20073AN  26257.90326389  .00097771  00000+0  25492-2 0  2578
2 46706  53.0547  66.0911 0000925  92.3433  71.5753 15.38223746    12

Track STARLINK-1807 in real time with AllMySat

Download on the App Store